STARLINK-5021 (53902 NORAD) Tracking and Keplerian Element Data

This shows tracking and keplerian element data for the satellite.

Feedback or suggestion? Click here.




ElementValue
Catalog53902
NameSTARLINK-5021
Epoch Orbit945
Epoch Day325.25001157
Epoch Year2022
RAAN329.1564
Inclination53.2136
Eccentricity0.0008416
Argument of Perigee285.3112
Mean Anonmoly343.1937
Mean Motion15.73213353
Decay Rate-0.00082224
L11 53902U 22119S 22325.25001157 -.00082224 00000+0 -58534-3 0 9996
L22 53902 53.2136 329.1564 0008416 285.3112 343.1937 15.73213353 9453



Live tracking and technical data element details for STARLINK-5021 (NORAD 53902). STARLINK-5021 can be tracked NOW for your location showing map with azimuth and elevation plus other details from your city location.







IsCatalogInMostPopularTable: catalog: 53902, numindb: 1
Update: records affected: 1



GetName: 53902 STARLINK-5021

Hit Count: updated at: Fri, 09 Dec 2022 19:53:45 GMT